Flag for Germany Weather past 2 weeks in Herten, North Rhine-Westphalia, Germany

Now
59 °F

Fog.


Feels Like: 59 °F
Forecast: 54 / 68 °F
Wind: 2 mph from South

Location: Essen

Current Time: Oct 1, 2014 at 2:58:31 AM

Latest Report: Oct 1, 2014 at 2:00 AM


Visibility: 3 mi

Pressure: 30.29 "Hg

Humidity: 88%

Dew point: 55 °F

Location of HertenLocation

Historic Weather in Herten — Graph

°F

Herten temperature yesterday

Maximum temperature yesterday: 66 °F (at 5:00 PM)
Minimum temperature yesterday: 58 °F (at 11:00 PM)
Average temperature yesterday: 61 °F

Past Weeks' High & Low Weather Summary

 TemperatureHumidityPressure
High77 °F (Sep 17, 4:00 PM)100% (Sep 19, 12:00 AM)30.40 "Hg (Sep 19, 12:00 AM)
Low46 °F (Sep 23, 7:00 AM)49% (Sep 17, 6:00 PM)29.82 "Hg (Sep 19, 5:00 AM)
Average60 °F83%30.07 "Hg
* Reported Sep 16 2:00 AM — Oct 1 2:00 AM, Herten, Weather by CustomWeather, © 2014

Note: Actual official high and low records may vary slightly from our data, if they occured in-between our weather recording intervals... More about our weather records

Advertising

Herten weather history for previous 24 hours

 ConditionsComfort  
Time TempWeatherWind HumidityBarometerVisibility
2:00 AM
Oct 1
59 °FFog.2 mph88%30.29 "Hg3 mi
1:00 AM58 °FFog.2 mph92%30.29 "Hg2 mi
12:00 AM57 °FFog.1 mph98%30.30 "Hg2 mi
11:00 PM
Sep 30
58 °FFog.1 mph95%30.30 "Hg2 mi
10:00 PM60 °FFog.2 mph90%30.29 "Hg3 mi
9:00 PM60 °FFog.1 mph90%30.29 "Hg4 mi
8:00 PM62 °FClear.2 mph82%30.29 "Hg6 mi
7:00 PM63 °FPassing clouds.2 mph81%30.27 "Hg7 mi
6:00 PM65 °FScattered clouds.2 mph73%30.27 "Hg7 mi
5:00 PM66 °FPassing clouds.3 mph73%30.27 "Hg7 mi
4:00 PM65 °FScattered clouds.2 mph75%30.27 "Hg6 mi
3:00 PM65 °FOvercast.2 mph77%30.28 "Hg7 mi
2:00 PM65 °FOvercast.3 mph76%30.28 "Hg7 mi
1:00 PM65 °FOvercast.5 mph76%30.27 "Hg7 mi
12:00 PM64 °FScattered clouds.3 mph81%30.26 "Hg6 mi
11:00 AM62 °FFog.3 mph92%30.27 "Hg3 mi
10:00 AM61 °FFog.3 mph94%30.25 "Hg3 mi
9:00 AM60 °FFog.3 mph97%30.25 "Hg4 mi
8:00 AM60 °FLow clouds.3 mph96%30.23 "Hg5 mi
7:00 AM60 °FLow clouds.2 mph96%30.22 "Hg4 mi
6:00 AM59 °FDrizzle. Low clouds.2 mph96%30.22 "Hg4 mi
5:00 AM58 °FFog.2 mph98%30.21 "Hg4 mi
4:00 AM59 °FPassing clouds.3 mph97%30.22 "Hg5 mi
3:00 AM59 °FOvercast.2 mph95%30.22 "Hg6 mi
2:00 AM59 °FOvercast.2 mph97%30.22 "Hg5 mi
Weather by CustomWeather, © 2014

See weather overviewHow to use our weather pages